This demonstration page uses our WeatherBlox Daily Observations layout. Learn more.

Left ArrowRight Arrow

Hourly Observations for October 5, 2018

Temp ( °F °C ) Dew Point ( °F °C ) Humidity (%) Winds ( mph kmh ) Pressure ( in mb ) Visibility ( mi km ) Precip ( " mm )
12:32 am 00:32 Partly Cloudy 39 4 37 3 93 93 Calm 30.06 1018 8 13 0.00 0.00
12:41 am 00:41 Mostly Cloudy 40 4.4 38 3.3 93 93 Calm 30.06 1018 8 13 0.00 0.00
12:53 am 00:53 Mostly Cloudy 40 4.4 38 3.3 93 93 Calm 30.02 1017 9 14 0.00 0.00
1:22 am 01:22 Mostly Clear 37 3 37 3 100 100 Calm 30.06 1018 7 11 0.00 0.00
1:53 am 01:53 Clear 38 3.3 36 2.2 93 93 Calm 30.01 1016 8 13 0.00 0.00
2:53 am 02:53 Mostly Clear with Mist and Fog 38 3.3 37 2.8 97 97 Calm 29.99 1016 6 10 0.00 0.00
3:53 am 03:53 Clear 37 2.8 36 2.2 96 96 Calm 29.97 1015 7 11 0.00 0.00
4:53 am 04:53 Clear with Mist and Fog 37 2.8 36 2.2 96 96 Calm 29.96 1015 6 10 0.00 0.00
5:51 am 05:51 Partly Cloudy with Mist and Fog 37 3 36 2 93 93 WSW 5 7 30.00 1016 6 10 0.00 0.00
5:53 am 05:53 Partly Cloudy with Mist and Fog 37 2.8 36 2.2 96 96 WSW 3 6 29.96 1014 6 10 0.00 0.00
6:00 am 06:00 Mostly Cloudy with Mist and Fog 37 3 36 2 93 93 W 5 7 29.97 1015 4 6 0.00 0.00
6:03 am 06:03 Mostly Cloudy with Mist and Fog 37 2.8 36 2.2 96 96 W 3 6 29.97 1015 2 3 0.00 0.00
6:14 am 06:14 Cloudy with Fog 37 3 37 3 100 100 WSW 3 6 30.00 1016 1 1 0.00 0.00
6:53 am 06:53 Cloudy with Mist and Fog 37 2.8 37 2.8 100 100 SSW 5 7 29.97 1015 1 1 0.00 0.00
7:00 am 07:00 Cloudy with Mist and Fog 37 2.8 37 2.8 100 100 SW 3 6 30.00 1016 1 2 0.00 0.00
7:07 am 07:07 Cloudy with Fog 37 2.8 37 2.8 100 100 SW 3 6 30.00 1016 1 1 0.00 0.00
7:53 am 07:53 Mostly Cloudy with Fog 39 3.9 39 3.9 100 100 S 3 6 29.95 1014 5 8 0.00 0.00
8:53 am 08:53 Mostly Cloudy with Fog 41 5 41 5 100 100 SSW 5 7 29.95 1014 5 8 0.00 0.00
9:53 am 09:53 Cloudy with Mist and Fog 43 6.1 43 6.1 100 100 S 8 13 29.96 1014 2 3 0.00 0.00
10:00 am 10:00 Cloudy with Mist and Fog 43 6 43 6 100 100 SW 5 7 29.94 1014 6 10 0.00 0.00
10:44 am 10:44 Cloudy 46 8 45 7 93 93 SSW 5 7 29.94 1014 9 14 0.00 0.00
10:53 am 10:53 Cloudy 45 7.2 44 6.7 97 97 S 7 11 29.94 1014 10 16 0.00 0.00
11:53 am 11:53 Cloudy 49 9.4 45 7.2 86 86 S 7 11 29.91 1013 10 16 0.00 0.00
12:43 pm 12:43 Cloudy with Mist and Fog 49 9.4 47 8.3 93 93 S 7 11 29.88 1012 2 3 0.00 0.00
12:53 pm 12:53 Cloudy with Mist and Fog 49 9.4 47 8.3 93 93 SSE 6 9 29.89 1012 2 3 0.00 0.00
1:21 pm 13:21 Cloudy with Mist and Fog 50 10 48 9 94 94 S 6 9 29.88 1012 4 6 0.00 0.00
1:53 pm 13:53 Cloudy 51 10.6 48 8.9 89 89 SSE 6 9 29.88 1012 9 14 0.00 0.00
2:53 pm 14:53 Cloudy with Mist and Fog 52 11.1 49 9.4 89 89 Calm 29.85 1011 5 8 0.00 0.00
3:53 pm 15:53 Cloudy 53 11.7 50 10 89 89 Calm 29.88 1012 9 14 0.00 0.00
4:41 pm 16:41 Cloudy with Mist and Fog 53 11.7 50 10 89 89 NNE 5 7 29.85 1011 2 3 0.00 0.00
4:53 pm 16:53 Cloudy with Mist and Fog 53 11.7 50 10 89 89 N 5 7 29.88 1012 5 8 0.00 0.00
5:53 pm 17:53 Cloudy with Mist and Fog 52 11.1 50 10 93 93 NNW 7 11 29.93 1014 5 8 0.00 0.00
6:02 pm 18:02 Cloudy with Mist and Fog 52 11 50 10 94 94 N 6 9 29.91 1013 3 5 0.00 0.00
6:12 pm 18:12 Cloudy with Mist and Fog 52 11 50 10 94 94 N 8 13 29.91 1013 3 4 0.00 0.00
6:16 pm 18:16 Cloudy with Mist and Fog 52 11.1 50 10 93 93 N 9 15 29.91 1013 3 5 0.00 0.00
6:35 pm 18:35 Cloudy 52 11.1 50 10 93 93 N 7 11 29.91 1013 8 13 0.00 0.00
6:53 pm 18:53 Cloudy 52 11.1 50 10 93 93 NNE 7 11 29.95 1014 8 13 0.00 0.00
7:20 pm 19:20 Cloudy with Mist and Fog 52 11.1 50 10 93 93 N 8 13 29.97 1015 4 6 0.00 0.00
7:53 pm 19:53 Cloudy 52 11.1 50 10 93 93 N 9 15 29.97 1015 9 14 0.00 0.00
8:20 pm 20:20 Cloudy 52 11 46 8 82 82 N 18 30 29.97 1015 7 11 0.00 0.00
8:39 pm 20:39 Cloudy 50 10 44 6.7 80 80 N 23 37 29.97 1015 9 14 0.00 0.00
8:53 pm 20:53 Cloudy 48 8.9 43 6.1 83 83 N 24 39 30.01 1016 10 16 0.00 0.00
9:15 pm 21:15 Cloudy 47 8.3 43 6.1 86 86 N 20 31 30.03 1017 10 16 0.00 0.00
9:53 pm 21:53 Cloudy 46 7.8 42 5.6 86 86 N 17 28 30.04 1017 9 14 0.00 0.00
10:53 pm 22:53 Cloudy 46 7.8 41 5 83 83 N 14 22 30.08 1019 10 16 0.00 0.00
11:23 pm 23:23 Cloudy 46 7.8 41 5 83 83 N 16 26 30.12 1020 10 16 0.00 0.00
11:53 pm 23:53 Cloudy 45 7.2 39 3.9 80 80 N 14 22 30.09 1019 10 16 0.00 0.00

Powered by AerisWeather